Zurück zum Katalog

STARLINK-3755

AktivKommunikationVLEO
NORAD 52307·PAYLOAD·🇺🇸 United States

Gestartet Apr 21, 2022 von Cape Canaveral Space Force Station

Loading…

Nächste Überflüge (nächste 24 Stunden)

TLE

AktuellSource: CelesTrak SupGP

Epoche: Sep 15, 2026, 01:33 UTC

1 52307C 22041AY  26258.06506944  .00048201  00000+0  14242-2 0  2580
2 52307  53.1575 316.7988 0001052  84.0179 255.1528 15.34364528    14

Verfolge STARLINK-3755 in Echtzeit mit AllMySat

Download on the App Store